Total_Precipitation_Accumulation
0.03 0.07 0.08 0.09 0.11 0.14 0.14 0.24 0.34 0.34 0.31 0.37 0.50 0.66 0.87 0.95 1.13 1.31 1.38 1.47 1.63 1.79 2.13 2.55 3.21 4.19 4.60 5.25 5.25 4.85 4.51 4.35 4.28 4.22 4.20 4.22 4.30 4.44 4.57 4.50 4.24 4.17 4.07 4.11
0.04 0.05 0.05 0.06 0.09 0.10 0.12 0.20 0.28 0.37 0.42 0.46 0.63 0.79 1.02 1.12 1.22 1.30 1.28 1.46 1.51 1.66 2.27 2.89 3.38 3.91 4.19 4.33 4.58 4.92 4.92 4.86 4.58 4.49 4.75 5.16 5.37 5.26 5.29 5.22 5.12 4.93 4.79 4.75
0.05 0.05 0.04 0.05 0.07 0.08 0.11 0.18 0.22 0.36 0.49 0.63 0.88 1.18 1.26 1.29 1.40 1.36 1.30 1.38 1.44 1.61 2.00 2.65 3.19 3.58 4.04 4.35 4.39 4.67 4.83 5.02 5.23 5.36 5.52 5.90 6.16 6.00 5.74 5.36 5.17 4.96 4.68 4.60
0.03 0.03 0.03 0.06 0.08 0.08 0.11 0.12 0.19 0.28 0.49 0.76 0.95 1.46 1.56 1.47 1.54 1.56 1.62 1.62 1.62 1.78 1.97 2.34 2.78 3.08 3.46 3.73 4.01 4.36 4.60 4.82 5.35 6.06 6.36 6.37 6.40 6.22 5.87 5.54 5.24 4.87 4.54 4.28
0.04 0.03 0.05 0.07 0.07 0.06 0.08 0.09 0.15 0.25 0.42 0.76 0.89 1.23 1.75 1.68 1.74 1.74 1.79 1.83 1.82 1.84 1.95 2.11 2.20 2.55 3.05 3.29 3.50 3.91 4.37 4.84 5.46 6.00 6.32 6.53 6.42 6.17 5.86 5.39 5.03 4.67 4.32 3.97
0.05 0.05 0.05 0.07 0.07 0.06 0.07 0.12 0.21 0.30 0.51 0.94 0.81 1.00 1.76 1.93 1.88 1.75 1.75 1.83 1.83 1.77 1.82 1.90 2.05 2.26 2.58 2.89 3.13 3.38 3.95 4.66 5.09 5.45 5.76 5.92 6.01 5.89 5.56 5.08 4.78 4.46 4.09 3.76
0.09 0.08 0.06 0.06 0.08 0.09 0.14 0.36 0.71 0.88 1.02 1.02 0.69 1.04 1.84 2.00 1.96 1.89 1.87 2.04 1.86 1.62 1.68 1.92 2.02 2.21 2.44 2.72 3.06 3.35 3.76 4.32 4.63 4.73 4.87 5.13 5.31 5.29 5.15 4.93 4.63 4.23 3.72 3.25
0.18 0.16 0.08 0.07 0.10 0.13 0.16 0.35 0.80 1.05 1.06 1.02 0.98 1.64 2.10 2.04 1.97 1.96 1.93 1.95 1.86 1.76 1.88 1.96 1.97 2.12 2.43 2.63 2.78 3.13 3.38 3.90 4.18 4.04 4.10 4.37 4.61 4.59 4.45 4.24 3.81 3.40 3.03 2.73
0.24 0.22 0.10 0.09 0.11 0.12 0.17 0.27 0.38 0.66 0.79 1.09 1.52 2.08 2.46 2.42 2.31 2.17 2.04 1.87 1.84 1.82 1.97 2.03 1.93 2.01 2.21 2.43 2.59 2.74 2.91 3.28 3.55 3.49 3.49 3.55 3.58 3.60 3.51 3.32 3.01 2.66 2.38 2.15
0.18 0.23 0.14 0.11 0.14 0.17 0.19 0.24 0.39 0.74 1.07 1.41 1.72 2.38 2.98 2.85 2.54 2.25 2.10 1.84 1.82 1.72 1.77 1.85 1.89 1.95 1.85 1.91 2.22 2.46 2.51 2.64 2.78 2.78 2.77 2.77 2.82 2.90 2.82 2.55 2.27 2.11 2.02 1.86
0.16 0.26 0.23 0.21 0.25 0.27 0.29 0.34 0.40 0.61 0.78 1.23 1.75 2.38 2.51 2.60 2.43 2.17 1.98 1.79 1.64 1.57 1.64 1.75 1.85 1.88 1.74 1.64 1.75 2.01 2.21 2.27 2.36 2.46 2.48 2.36 2.31 2.24 2.18 2.04 1.85 1.81 1.75 1.63
0.22 0.33 0.40 0.33 0.26 0.24 0.28 0.34 0.43 0.75 0.82 0.95 1.48 2.27 2.22 2.47 2.51 2.37 2.11 1.91 1.87 1.77 1.78 1.83 1.99 1.91 1.77 1.77 1.77 1.80 1.92 2.02 2.09 2.12 2.22 2.23 2.12 1.92 1.84 1.76 1.67 1.58 1.51 1.44
0.28 0.48 0.73 0.80 0.62 0.40 0.35 0.37 0.42 0.49 0.70 0.99 1.56 2.40 2.34 2.37 2.41 2.34 2.14 2.07 2.07 2.05 2.07 2.03 2.04 1.93 1.83 1.82 1.71 1.60 1.66 1.76 1.82 1.88 1.90 1.88 1.81 1.70 1.61 1.59 1.58 1.45 1.37 1.29
0.30 0.51 0.83 1.21 1.03 0.66 0.53 0.46 0.47 0.57 0.87 1.08 1.44 1.97 2.26 2.21 2.29 2.40 2.35 2.14 2.11 2.18 2.17 2.11 2.06 2.04 1.97 1.88 1.72 1.60 1.57 1.53 1.48 1.57 1.65 1.65 1.60 1.56 1.50 1.40 1.38 1.35 1.31 1.25
0.40 0.60 0.58 0.59 0.56 0.56 0.54 0.52 0.52 0.61 0.72 1.11 1.43 1.87 2.22 2.12 2.25 2.54 2.57 2.41 2.25 2.28 2.28 2.20 2.23 2.16 2.14 2.10 1.93 1.80 1.67 1.56 1.49 1.47 1.43 1.49 1.58 1.56 1.50 1.46 1.41 1.36 1.27 1.16
0.46 0.61 0.60 0.55 0.49 0.53 0.58 0.62 0.58 0.61 0.76 1.11 1.48 1.99 2.09 2.08 2.18 2.32 2.47 2.40 2.28 2.29 2.35 2.39 2.49 2.43 2.36 2.31 2.12 1.96 1.82 1.61 1.48 1.46 1.44 1.46 1.52 1.51 1.45 1.43 1.37 1.31 1.25 1.23
0.47 0.65 0.79 0.70 0.50 0.76 1.12 0.95 0.84 0.84 0.94 1.24 1.63 1.84 1.79 1.89 2.12 2.25 2.35 2.43 2.40 2.49 2.63 2.69 2.63 2.59 2.49 2.40 2.39 2.28 2.03 1.80 1.70 1.60 1.49 1.47 1.44 1.40 1.36 1.25 1.22 1.27 1.27 1.24
0.51 0.69 0.81 0.86 0.93 1.51 1.43 0.94 0.89 1.03 1.20 1.29 1.40 1.45 1.62 1.83 2.00 2.08 2.31 2.53 2.56 2.55 2.51 2.59 2.55 2.55 2.47 2.35 2.28 2.22 2.08 1.92 1.71 1.58 1.46 1.37 1.37 1.34 1.34 1.30 1.27 1.28 1.29 1.23
0.36 0.64 0.92 1.07 1.41 1.55 1.45 1.02 1.03 1.26 1.64 1.46 1.47 1.45 1.56 1.66 1.84 2.21 2.29 2.39 2.59 2.46 2.36 2.44 2.53 2.55 2.50 2.37 2.17 2.05 1.97 1.88 1.78 1.59 1.37 1.25 1.25 1.23 1.24 1.27 1.27 1.25 1.24 1.19
0.39 0.58 1.04 1.31 1.67 1.91 1.73 1.03 0.86 1.30 2.31 1.75 1.62 1.63 1.59 1.71 2.22 2.36 2.10 2.03 2.14 2.21 2.31 2.43 2.54 2.58 2.52 2.41 2.10 1.95 1.83 1.68 1.52 1.32 1.20 1.16 1.19 1.13 1.11 1.18 1.22 1.22 1.23 1.18
0.85 0.93 1.15 1.45 1.90 2.00 1.26 0.80 0.93 1.88 2.38 1.82 1.71 1.66 1.69 1.91 2.10 1.90 1.74 1.81 1.98 2.14 2.28 2.38 2.41 2.43 2.35 2.27 2.02 1.91 1.73 1.57 1.30 1.11 1.05 1.11 1.11 1.04 1.01 1.07 1.12 1.18 1.14 1.14
1.21 1.39 1.50 1.66 2.10 2.23 1.10 0.88 1.31 1.68 1.41 1.33 1.36 1.35 1.39 1.49 1.54 1.57 1.62 1.69 1.76 1.88 2.08 2.19 2.24 2.22 2.11 1.99 1.84 1.73 1.59 1.34 1.14 1.02 0.99 1.06 1.11 0.91 0.82 0.95 0.98 1.02 1.15 1.11
1.19 1.38 1.62 1.89 2.23 1.84 1.19 1.12 1.12 1.18 1.19 1.13 1.18 1.16 1.18 1.26 1.32 1.44 1.59 1.69 1.71 1.68 1.82 1.90 1.82 1.72 1.73 1.67 1.56 1.46 1.32 1.14 1.02 0.99 1.03 1.04 1.03 0.95 0.89 0.95 0.96 0.99 1.07 1.06
1.28 1.12 1.39 1.66 1.75 1.45 1.15 1.05 1.03 0.92 0.92 0.97 1.09 1.09 1.05 1.05 1.03 1.13 1.27 1.41 1.49 1.48 1.48 1.54 1.54 1.48 1.45 1.39 1.30 1.19 1.06 1.02 1.01 1.02 1.04 1.06 1.03 0.94 0.89 0.93 0.88 0.89 0.89 0.91
1.32 1.30 1.54 1.75 1.71 1.48 1.27 1.09 0.99 0.93 0.90 0.95 1.00 0.94 0.88 0.84 0.84 0.87 1.01 1.10 1.16 1.20 1.19 1.22 1.31 1.33 1.21 1.13 1.09 1.04 0.95 0.94 1.03 1.05 1.01 1.01 0.92 0.88 0.89 0.85 0.74 0.70 0.66 0.68
1.20 1.42 1.74 1.94 1.64 1.55 1.39 1.06 0.87 0.87 0.86 0.84 0.81 0.76 0.76 0.73 0.72 0.76 0.92 1.02 1.05 1.04 1.06 1.13 1.19 1.16 1.10 1.03 0.97 0.92 0.84 0.85 0.97 1.01 0.97 0.89 0.83 0.79 0.76 0.79 0.72 0.64 0.60 0.59